Regional Weather Roundup
Issued by NWS Cleveland, OH

Home | Current Version | Previous Version | Graphics & Text | Print | Product List | Glossary On
Versions: 1 2 3 4 5 6 7 8 9 10 11 12 13 14 15 16 17 18 19 20 21 22 23 24 25 26 27 28 29 30 31 32 33 34 35 36 37 38 39 40 41 42 43 44 45 46 47 48 49 50
860
ASUS41 KCLE 250002
RWRCLE
OHIO REGIONAL WEATHER ROUNDUP
NATIONAL WEATHER SERVICE CLEVELAND, OH
700 PM EST FRI FEB 24 2017

NOTE: "FAIR" INDICATES FEW OR NO CLOUDS BELOW 12,000 FEET WITH NO
SIGNIFICANT WEATHER AND/OR OBSTRUCTIONS TO VISIBILITY.

OHZ001>008-015>018-024>027-034-035-043-044-250100-
   NORTHWEST OHIO

CITY           SKY/WX    TMP DP  RH WIND       PRES   REMARKS
DEFIANCE       CLOUDY    63  51  65 S9        29.46F
FINDLAY        LGT RAIN  62  53  72 SE16      29.51R
TOLEDO EXPRESS MOCLDY    63  52  67 S6        29.48S
TOLEDO EXEC    PTCLDY    63  54  72 S12       29.50R
LIMA           CLOUDY    60  56  86 SW10      29.50F THUNDER
$$

OHZ009>014-019>023-028>033-038-089-250100-
   NORTHEAST OHIO

CITY           SKY/WX    TMP DP  RH WIND       PRES   REMARKS
CLE-HOPKINS    CLOUDY    71  50  47 S12       29.58F
CLE-LAKEFRONT  CLOUDY    73  49  42 S13       29.54F
CUY CO. ARPT   MOCLDY    72  52  49 S12       29.59F
LORAIN-ELYRIA  CLOUDY    68  51  54 S9        29.56F
ASHTABULA      CLOUDY    69  50  50 S3        29.61S
AKRON-CANTON   MOCLDY    65  48  54 S8        29.61S
WOOSTER        CLOUDY    65  50  58 S3        29.59F
MANSFIELD      CLOUDY    67  51  56 S8        29.58F
YOUNGSTOWN     CLOUDY    70  47  43 S3        29.62R
$$

OHZ042-051>053-060>062-070>072-077>081-250100-
  SOUTHWEST OHIO

CITY           SKY/WX    TMP DP  RH WIND       PRES   REMARKS
CINC-COVINGTON CLOUDY    72  52  49 S15G23    29.53F
CINC-LUNKEN    PTCLDY    72  52  49 S8        29.53F
HAMILTON       CLOUDY    75  52  44 S9        29.52F
DAYTON         CLOUDY    70  51  51 S10G20    29.54S
WRIGHT-PAT AFB NOT AVBL
DAYTON GENERAL CLOUDY    71  51  49 S7        29.53F
WILMINGTON     MOCLDY    70  52  52 S12       29.55F
$$

OHZ036-037-039>041-045>050-054>059-063>069-073>076-082>088-250100-
  CENTRAL AND SOUTHEAST OHIO

CITY           SKY/WX    TMP DP  RH WIND       PRES   REMARKS
COLUMBUS       CLOUDY    73  50  44 S7        29.56F
OSU AIRPORT    CLOUDY    71  52  50 S8        29.55F
BOLTON FIELD   PTCLDY    68  54  60 S9        29.56F
RICKENBACK AFB NOT AVBL
NEWARK         CLEAR     70  48  45 S5        29.56F
MARION         CLOUDY    68  52  56 S10       29.55F
LANCASTER      CLEAR     70  48  45 S7        29.57F
ZANESVILLE     CLEAR     71  46  40 CALM      29.59F
NEW PHILLY     NOT AVBL
$$




USA.gov is the U.S. government's official web portal to all federal, state and local government web resources and services.